Time,TemperatureF,DewpointF,PressureIn,WindDirection,WindDirectionDegrees,WindSpeedMPH,WindSpeedGustMPH,Humidity,HourlyPrecipIn,Conditions,Clouds,dailyrainin,SoftwareType,DateUTC
2013-07-26 00:01:00,76.3,67.0,29.88,WSW,247,0.0,0.0,73,0.00,,,0.00,WeatherCatV1.15B25,2013-07-26 07:01:00,
2013-07-26 00:06:00,76.2,66.9,29.88,WSW,246,0.0,0.0,73,0.00,,,0.00,WeatherCatV1.15B25,2013-07-26 07:06:00,
2013-07-26 00:11:00,76.2,66.9,29.88,WSW,247,0.0,0.0,73,0.00,,,0.00,WeatherCatV1.15B25,2013-07-26 07:11:00,
2013-07-26 00:16:00,76.2,66.9,29.88,WSW,247,0.0,0.0,73,0.00,,,0.00,WeatherCatV1.15B25,2013-07-26 07:16:00,
2013-07-26 00:21:00,76.1,66.8,29.88,WSW,247,0.0,0.0,73,0.00,,,0.00,WeatherCatV1.15B25,2013-07-26 07:21:00,
2013-07-26 00:26:00,76.1,66.8,29.88,WSW,247,0.0,0.0,73,0.00,,,0.00,WeatherCatV1.15B25,2013-07-26 07:26:00,
2013-07-26 00:31:00,76.0,66.3,29.88,WSW,246,0.0,0.0,72,0.00,,,0.00,WeatherCatV1.15B25,2013-07-26 07:31:00,
2013-07-26 00:36:00,75.8,66.1,29.88,WSW,247,0.0,1.0,72,0.00,,,0.00,WeatherCatV1.15B25,2013-07-26 07:36:00,
2013-07-26 00:41:00,75.7,66.0,29.88,WSW,246,0.0,0.0,72,0.00,,,0.00,WeatherCatV1.15B25,2013-07-26 07:41:00,
2013-07-26 00:46:00,75.6,65.9,29.88,WSW,247,0.0,0.0,72,0.00,,,0.00,WeatherCatV1.15B25,2013-07-26 07:46:00,
2013-07-26 00:51:00,75.4,65.3,29.88,WSW,247,0.0,0.0,71,0.00,,,0.00,WeatherCatV1.15B25,2013-07-26 07:51:00,
2013-07-26 00:56:00,75.3,65.2,29.88,WSW,247,0.0,0.0,71,0.00,,,0.00,WeatherCatV1.15B25,2013-07-26 07:56:00,
2013-07-26 01:01:00,75.1,65.0,29.88,WSW,247,0.0,0.0,71,0.00,,,0.00,WeatherCatV1.15B25,2013-07-26 08:01:00,
2013-07-26 01:06:00,75.0,64.9,29.88,WSW,247,0.0,0.0,71,0.00,,,0.00,WeatherCatV1.15B25,2013-07-26 08:06:00,
2013-07-26 01:11:00,74.8,64.8,29.88,WSW,247,0.0,0.0,71,0.00,,,0.00,WeatherCatV1.15B25,2013-07-26 08:11:00,
2013-07-26 01:16:00,74.4,64.4,29.88,WSW,246,0.0,0.0,71,0.00,,,0.00,WeatherCatV1.15B25,2013-07-26 08:16:00,
2013-07-26 01:21:00,74.3,64.3,29.88,WSW,246,0.0,0.0,71,0.00,,,0.00,WeatherCatV1.15B25,2013-07-26 08:21:00,
2013-07-26 01:26:00,74.1,64.1,29.88,WSW,247,0.0,0.0,71,0.00,,,0.00,WeatherCatV1.15B25,2013-07-26 08:26:00,
2013-07-26 01:31:00,73.9,63.9,29.88,WSW,247,0.0,0.0,71,0.00,,,0.00,WeatherCatV1.15B25,2013-07-26 08:31:00,
2013-07-26 01:36:00,73.8,63.8,29.88,WSW,246,0.0,0.0,71,0.00,,,0.00,WeatherCatV1.15B25,2013-07-26 08:36:00,
2013-07-26 01:41:00,73.7,63.7,29.88,WSW,247,0.0,0.0,71,0.00,,,0.00,WeatherCatV1.15B25,2013-07-26 08:41:00,
2013-07-26 01:46:00,73.5,63.1,29.88,WSW,246,0.0,0.0,70,0.00,,,0.00,WeatherCatV1.15B25,2013-07-26 08:46:00,
2013-07-26 01:51:00,73.3,62.5,29.88,WSW,246,0.0,1.0,69,0.00,,,0.00,WeatherCatV1.15B25,2013-07-26 08:51:00,
2013-07-26 01:56:00,73.1,62.3,29.88,WSW,247,0.0,0.0,69,0.00,,,0.00,WeatherCatV1.15B25,2013-07-26 08:56:00,
2013-07-26 02:01:00,73.0,62.2,29.88,WSW,247,0.0,1.0,69,0.00,,,0.00,WeatherCatV1.15B25,2013-07-26 09:01:00,
2013-07-26 02:06:00,73.0,61.8,29.88,WSW,247,0.0,0.0,68,0.00,,,0.00,WeatherCatV1.15B25,2013-07-26 09:06:00,
2013-07-26 02:11:00,72.9,61.7,29.88,WSW,246,0.0,0.0,68,0.00,,,0.00,WeatherCatV1.15B25,2013-07-26 09:11:00,
2013-07-26 02:16:00,72.8,61.2,29.88,WSW,247,0.0,0.0,67,0.00,,,0.00,WeatherCatV1.15B25,2013-07-26 09:16:00,
2013-07-26 02:21:00,72.8,61.2,29.88,WSW,246,0.0,0.0,67,0.00,,,0.00,WeatherCatV1.15B25,2013-07-26 09:21:00,
2013-07-26 02:26:00,72.8,60.8,29.88,WSW,246,0.0,0.0,66,0.00,,,0.00,WeatherCatV1.15B25,2013-07-26 09:26:00,
2013-07-26 02:31:00,72.7,60.7,29.88,WSW,247,0.0,1.0,66,0.00,,,0.00,WeatherCatV1.15B25,2013-07-26 09:31:00,
2013-07-26 02:36:00,72.7,60.7,29.88,WSW,247,0.0,0.0,66,0.00,,,0.00,WeatherCatV1.15B25,2013-07-26 09:36:00,
2013-07-26 02:41:00,72.6,60.1,29.89,WSW,247,0.0,0.0,65,0.00,,,0.00,WeatherCatV1.15B25,2013-07-26 09:41:00,
2013-07-26 02:46:00,72.5,60.5,29.89,WSW,246,0.0,0.0,66,0.00,,,0.00,WeatherCatV1.15B25,2013-07-26 09:46:00,
2013-07-26 02:51:00,72.5,60.5,29.89,WSW,247,0.0,0.0,66,0.00,,,0.00,WeatherCatV1.15B25,2013-07-26 09:51:00,
2013-07-26 02:56:00,72.3,60.3,29.89,WSW,247,0.0,0.0,66,0.00,,,0.00,WeatherCatV1.15B25,2013-07-26 09:56:00,
2013-07-26 03:01:00,72.2,60.2,29.89,WSW,246,0.0,0.0,66,0.00,,,0.00,WeatherCatV1.15B25,2013-07-26 10:01:00,
2013-07-26 03:06:00,72.1,60.1,29.89,WSW,247,0.0,0.0,66,0.00,,,0.00,WeatherCatV1.15B25,2013-07-26 10:06:00,
2013-07-26 03:11:00,72.0,59.6,29.89,WSW,247,0.0,0.0,65,0.00,,,0.00,WeatherCatV1.15B25,2013-07-26 10:11:00,
2013-07-26 03:16:00,71.8,59.8,29.89,WSW,247,0.0,0.0,66,0.00,,,0.00,WeatherCatV1.15B25,2013-07-26 10:16:00,
2013-07-26 03:21:00,71.6,59.6,29.89,WSW,247,0.0,0.0,66,0.00,,,0.00,WeatherCatV1.15B25,2013-07-26 10:21:00,
2013-07-26 03:26:00,71.4,59.9,29.89,WSW,247,0.0,0.0,67,0.00,,,0.00,WeatherCatV1.15B25,2013-07-26 10:26:00,
2013-07-26 03:31:00,71.3,59.8,29.89,WSW,246,0.0,0.0,67,0.00,,,0.00,WeatherCatV1.15B25,2013-07-26 10:31:00,
2013-07-26 03:36:00,71.1,59.6,29.89,WSW,246,0.0,0.0,67,0.00,,,0.00,WeatherCatV1.15B25,2013-07-26 10:36:00,
2013-07-26 03:41:00,70.9,59.8,29.89,WSW,247,0.0,0.0,68,0.00,,,0.00,WeatherCatV1.15B25,2013-07-26 10:41:00,
2013-07-26 03:46:00,70.7,59.6,29.90,WSW,247,0.0,0.0,68,0.00,,,0.00,WeatherCatV1.15B25,2013-07-26 10:46:00,
2013-07-26 03:51:00,70.4,59.3,29.90,WSW,246,0.0,0.0,68,0.00,,,0.00,WeatherCatV1.15B25,2013-07-26 10:51:00,
2013-07-26 03:56:00,70.2,59.1,29.90,WSW,247,0.0,0.0,68,0.00,,,0.00,WeatherCatV1.15B25,2013-07-26 10:56:00,
2013-07-26 04:01:00,70.1,59.4,29.90,WSW,247,0.0,0.0,69,0.00,,,0.00,WeatherCatV1.15B25,2013-07-26 11:01:00,
2013-07-26 04:06:00,69.9,59.3,29.90,WSW,246,0.0,0.0,69,0.00,,,0.00,WeatherCatV1.15B25,2013-07-26 11:06:00,
2013-07-26 04:11:00,69.7,59.1,29.90,WSW,246,0.0,0.0,69,0.00,,,0.00,WeatherCatV1.15B25,2013-07-26 11:11:00,
2013-07-26 04:16:00,69.5,59.3,29.90,WSW,247,0.0,0.0,70,0.00,,,0.00,WeatherCatV1.15B25,2013-07-26 11:16:00,
2013-07-26 04:21:00,69.3,59.1,29.90,WSW,247,0.0,0.0,70,0.00,,,0.00,WeatherCatV1.15B25,2013-07-26 11:21:00,
2013-07-26 04:26:00,69.1,59.3,29.91,WSW,246,0.0,0.0,71,0.00,,,0.00,WeatherCatV1.15B25,2013-07-26 11:26:00,
2013-07-26 04:31:00,69.0,59.2,29.91,WSW,246,0.0,0.0,71,0.00,,,0.00,WeatherCatV1.15B25,2013-07-26 11:31:00,
2013-07-26 04:36:00,68.9,59.1,29.91,WSW,247,0.0,0.0,71,0.00,,,0.00,WeatherCatV1.15B25,2013-07-26 11:36:00,
2013-07-26 04:41:00,68.8,59.4,29.91,WSW,247,0.0,0.0,72,0.00,,,0.00,WeatherCatV1.15B25,2013-07-26 11:41:00,
2013-07-26 04:46:00,68.6,60.0,29.91,WSW,246,0.0,0.0,74,0.00,,,0.00,WeatherCatV1.15B25,2013-07-26 11:46:00,
2013-07-26 04:51:00,68.4,59.8,29.91,WSW,247,0.0,0.0,74,0.00,,,0.00,WeatherCatV1.15B25,2013-07-26 11:51:00,
2013-07-26 04:56:00,68.1,59.9,29.91,WSW,247,0.0,0.0,75,0.00,,,0.00,WeatherCatV1.15B25,2013-07-26 11:56:00,
2013-07-26 05:01:00,67.9,59.7,29.91,WSW,247,0.0,0.0,75,0.00,,,0.00,WeatherCatV1.15B25,2013-07-26 12:01:00,
2013-07-26 05:06:00,67.8,59.2,29.92,WSW,247,0.0,0.0,74,0.00,,,0.00,WeatherCatV1.15B25,2013-07-26 12:06:00,
2013-07-26 05:11:00,67.5,59.3,29.92,WSW,247,0.0,0.0,75,0.00,,,0.00,WeatherCatV1.15B25,2013-07-26 12:11:00,
2013-07-26 05:16:00,67.2,59.0,29.92,WSW,246,0.0,0.0,75,0.00,,,0.00,WeatherCatV1.15B25,2013-07-26 12:16:00,
2013-07-26 05:21:00,67.0,58.8,29.92,WSW,247,0.0,0.0,75,0.00,,,0.00,WeatherCatV1.15B25,2013-07-26 12:21:00,
2013-07-26 05:26:00,66.8,58.6,29.92,WSW,246,0.0,0.0,75,0.00,,,0.00,WeatherCatV1.15B25,2013-07-26 12:26:00,
2013-07-26 05:31:00,66.7,58.5,29.92,WSW,247,0.0,0.0,75,0.00,,,0.00,WeatherCatV1.15B25,2013-07-26 12:31:00,
2013-07-26 05:36:00,66.5,58.3,29.92,WSW,247,0.0,0.0,75,0.00,,,0.00,WeatherCatV1.15B25,2013-07-26 12:36:00,
2013-07-26 05:41:00,66.4,58.6,29.92,WSW,247,0.0,0.0,76,0.00,,,0.00,WeatherCatV1.15B25,2013-07-26 12:41:00,
2013-07-26 05:46:00,66.2,58.0,29.92,WSW,247,0.0,0.0,75,0.00,,,0.00,WeatherCatV1.15B25,2013-07-26 12:46:00,
2013-07-26 05:51:00,66.1,58.7,29.92,WSW,253,0.0,0.0,77,0.00,,,0.00,WeatherCatV1.15B25,2013-07-26 12:51:00,
2013-07-26 05:56:00,65.9,58.8,29.92,SE,146,0.0,0.0,78,0.00,,,0.00,WeatherCatV1.15B25,2013-07-26 12:56:00,
2013-07-26 06:01:00,65.8,58.7,29.92,WNW,292,0.0,0.0,78,0.00,,,0.00,WeatherCatV1.15B25,2013-07-26 13:01:00,
2013-07-26 06:06:00,65.7,59.0,29.92,WNW,292,0.0,0.0,79,0.00,,,0.00,WeatherCatV1.15B25,2013-07-26 13:06:00,
2013-07-26 06:11:00,65.4,58.7,29.92,WNW,292,0.0,0.0,79,0.00,,,0.00,WeatherCatV1.15B25,2013-07-26 13:11:00,
2013-07-26 06:16:00,65.3,58.6,29.92,WNW,292,0.0,0.0,79,0.00,,,0.00,WeatherCatV1.15B25,2013-07-26 13:16:00,
2013-07-26 06:21:00,65.1,58.4,29.92,WNW,292,0.0,0.0,79,0.00,,,0.00,WeatherCatV1.15B25,2013-07-26 13:21:00,
2013-07-26 06:26:00,65.0,58.7,29.92,WNW,292,0.0,0.0,80,0.00,,,0.00,WeatherCatV1.15B25,2013-07-26 13:26:00,
2013-07-26 06:31:00,64.9,58.6,29.92,WNW,292,0.0,0.0,80,0.00,,,0.00,WeatherCatV1.15B25,2013-07-26 13:31:00,
2013-07-26 06:36:00,64.8,58.1,29.93,WNW,292,0.0,0.0,79,0.00,,,0.00,WeatherCatV1.15B25,2013-07-26 13:36:00,
2013-07-26 06:41:00,64.7,58.0,29.92,WNW,292,0.0,0.0,79,0.00,,,0.00,WeatherCatV1.15B25,2013-07-26 13:41:00,
2013-07-26 06:46:00,64.7,58.0,29.93,WNW,292,0.0,0.0,79,0.00,,,0.00,WeatherCatV1.15B25,2013-07-26 13:46:00,
2013-07-26 06:51:00,64.8,57.8,29.93,WNW,292,0.0,0.0,78,0.00,,,0.00,WeatherCatV1.15B25,2013-07-26 13:51:00,
2013-07-26 06:56:00,64.9,57.9,29.93,WNW,292,0.0,0.0,78,0.00,,,0.00,WeatherCatV1.15B25,2013-07-26 13:56:00,
2013-07-26 07:01:00,65.0,58.0,29.94,WNW,292,0.0,0.0,78,0.00,,,0.00,WeatherCatV1.15B25,2013-07-26 14:01:00,
2013-07-26 07:06:00,65.2,58.2,29.94,WNW,292,0.0,0.0,78,0.00,,,0.00,WeatherCatV1.15B25,2013-07-26 14:06:00,
2013-07-26 07:11:00,65.3,58.3,29.94,WNW,292,0.0,0.0,78,0.00,,,0.00,WeatherCatV1.15B25,2013-07-26 14:11:00,
2013-07-26 07:16:00,65.5,58.8,29.94,WNW,292,0.0,0.0,79,0.00,,,0.00,WeatherCatV1.15B25,2013-07-26 14:16:00,
2013-07-26 07:21:00,65.8,58.7,29.94,WNW,292,0.0,0.0,78,0.00,,,0.00,WeatherCatV1.15B25,2013-07-26 14:21:00,
2013-07-26 07:26:00,66.1,59.4,29.95,WNW,292,0.0,0.0,79,0.00,,,0.00,WeatherCatV1.15B25,2013-07-26 14:26:00,
2013-07-26 07:31:00,66.3,59.2,29.95,WNW,292,0.0,0.0,78,0.00,,,0.00,WeatherCatV1.15B25,2013-07-26 14:31:00,
2013-07-26 07:36:00,66.7,59.6,29.95,WNW,292,0.0,0.0,78,0.00,,,0.00,WeatherCatV1.15B25,2013-07-26 14:36:00,
2013-07-26 07:41:00,67.1,59.3,29.95,ESE,117,0.0,0.0,76,0.00,,,0.00,WeatherCatV1.15B25,2013-07-26 14:41:00,
2013-07-26 07:46:00,67.9,60.0,29.95,SE,136,1.0,2.0,76,0.00,,,0.00,WeatherCatV1.15B25,2013-07-26 14:46:00,
2013-07-26 07:51:00,68.8,60.2,29.95,SSE,158,0.0,1.0,74,0.00,,,0.00,WeatherCatV1.15B25,2013-07-26 14:51:00,
2013-07-26 07:56:00,69.6,60.2,29.95,SSE,158,0.0,2.0,72,0.00,,,0.00,WeatherCatV1.15B25,2013-07-26 14:56:00,
2013-07-26 08:01:00,70.5,60.2,29.95,SSE,158,0.0,0.0,70,0.00,,,0.00,WeatherCatV1.15B25,2013-07-26 15:01:00,
2013-07-26 08:06:00,71.3,60.2,29.96,SSE,158,0.0,1.0,68,0.00,,,0.00,WeatherCatV1.15B25,2013-07-26 15:06:00,
2013-07-26 08:11:00,72.4,60.0,29.96,SSE,157,0.0,1.0,65,0.00,,,0.00,WeatherCatV1.15B25,2013-07-26 15:11:00,
2013-07-26 08:16:00,73.4,60.9,29.96,SSE,158,0.0,0.0,65,0.00,,,0.00,WeatherCatV1.15B25,2013-07-26 15:16:00,
2013-07-26 08:22:00,74.5,61.1,29.97,SSE,157,0.0,0.0,63,0.00,,,0.00,WeatherCatV1.15B25,2013-07-26 15:22:00,
2013-07-26 08:27:00,75.5,60.6,29.96,NNW,343,0.0,0.0,60,0.00,,,0.00,WeatherCatV1.15B25,2013-07-26 15:27:00,
2013-07-26 08:32:00,76.6,61.7,29.96,NNW,343,0.0,1.0,60,0.00,,,0.00,WeatherCatV1.15B25,2013-07-26 15:32:00,
2013-07-26 08:37:00,77.9,61.4,29.96,NNW,343,0.0,0.0,57,0.00,,,0.00,WeatherCatV1.15B25,2013-07-26 15:37:00,
2013-07-26 08:42:00,78.7,61.2,29.97,NNW,343,0.0,0.0,55,0.00,,,0.00,WeatherCatV1.15B25,2013-07-26 15:42:00,
2013-07-26 08:47:00,79.4,61.3,29.97,NNE,14,3.0,3.0,54,0.00,,,0.00,WeatherCatV1.15B25,2013-07-26 15:47:00,
2013-07-26 08:52:00,80.0,61.3,29.97,NNE,17,0.0,1.0,53,0.00,,,0.00,WeatherCatV1.15B25,2013-07-26 15:52:00,
2013-07-26 08:57:00,80.5,62.3,29.96,North,0,0.0,0.0,54,0.00,,,0.00,WeatherCatV1.15B25,2013-07-26 15:57:00,
2013-07-26 09:02:00,81.0,62.8,29.96,North,0,0.0,0.0,54,0.00,,,0.00,WeatherCatV1.15B25,2013-07-26 16:02:00,
2013-07-26 09:07:00,81.8,64.0,29.96,North,0,0.0,1.0,55,0.00,,,0.00,WeatherCatV1.15B25,2013-07-26 16:07:00,
2013-07-26 09:12:00,82.3,64.5,29.96,North,0,0.0,1.0,55,0.00,,,0.00,WeatherCatV1.15B25,2013-07-26 16:12:00,
2013-07-26 09:17:00,82.7,63.8,29.96,NW,313,1.0,2.0,53,0.00,,,0.00,WeatherCatV1.15B25,2013-07-26 16:17:00,
2013-07-26 09:22:00,82.9,63.4,29.96,NW,319,2.0,3.0,52,0.00,,,0.00,WeatherCatV1.15B25,2013-07-26 16:22:00,
2013-07-26 09:27:00,83.2,65.3,29.96,WNW,289,0.0,2.0,55,0.00,,,0.00,WeatherCatV1.15B25,2013-07-26 16:27:00,
2013-07-26 09:32:00,83.4,65.0,29.95,WNW,290,0.0,0.0,54,0.00,,,0.00,WeatherCatV1.15B25,2013-07-26 16:32:00,
2013-07-26 09:37:00,83.8,64.3,29.95,WNW,290,0.0,2.0,52,0.00,,,0.00,WeatherCatV1.15B25,2013-07-26 16:37:00,
2013-07-26 09:42:00,84.3,64.7,29.95,WNW,290,0.0,0.0,52,0.00,,,0.00,WeatherCatV1.15B25,2013-07-26 16:42:00,
2013-07-26 09:47:00,84.7,65.6,29.95,WNW,290,0.0,0.0,53,0.00,,,0.00,WeatherCatV1.15B25,2013-07-26 16:47:00,
2013-07-26 09:52:00,85.3,65.6,29.95,WNW,290,0.0,1.0,52,0.00,,,0.00,WeatherCatV1.15B25,2013-07-26 16:52:00,
2013-07-26 09:57:00,85.9,65.6,29.95,WNW,298,3.0,3.0,51,0.00,,,0.00,WeatherCatV1.15B25,2013-07-26 16:57:00,
2013-07-26 10:02:00,86.3,64.9,29.95,WNW,299,0.0,2.0,49,0.00,,,0.00,WeatherCatV1.15B25,2013-07-26 17:02:00,
2013-07-26 10:06:00,86.9,65.4,29.95,WNW,299,0.0,0.0,49,0.00,,,0.00,WeatherCatV1.15B25,2013-07-26 17:06:00,
2013-07-26 10:11:00,87.8,66.2,29.95,WNW,299,1.0,1.0,49,0.00,,,0.00,WeatherCatV1.15B25,2013-07-26 17:11:00,
2013-07-26 10:17:00,87.9,63.9,29.95,NNW,331,4.0,5.0,45,0.00,,,0.00,WeatherCatV1.15B25,2013-07-26 17:17:00,
2013-07-26 10:22:00,87.9,66.3,29.95,NNW,331,0.0,1.0,49,0.00,,,0.00,WeatherCatV1.15B25,2013-07-26 17:22:00,
2013-07-26 10:27:00,88.0,63.3,29.95,NNW,329,0.0,1.0,44,0.00,,,0.00,WeatherCatV1.15B25,2013-07-26 17:27:00,
2013-07-26 10:32:00,88.3,65.5,29.96,NNW,329,2.0,3.0,47,0.00,,,0.00,WeatherCatV1.15B25,2013-07-26 17:32:00,
2013-07-26 10:37:00,88.3,64.2,29.96,WSW,237,4.0,4.0,45,0.00,,,0.00,WeatherCatV1.15B25,2013-07-26 17:37:00,
2013-07-26 10:42:00,88.5,63.1,29.96,NW,323,2.0,6.0,43,0.00,,,0.00,WeatherCatV1.15B25,2013-07-26 17:42:00,
2013-07-26 10:47:00,88.6,62.5,29.96,NW,316,0.0,4.0,42,0.00,,,0.00,WeatherCatV1.15B25,2013-07-26 17:47:00,
2013-07-26 10:52:00,88.8,62.0,29.96,NW,324,1.0,4.0,41,0.00,,,0.00,WeatherCatV1.15B25,2013-07-26 17:52:00,
2013-07-26 10:57:00,89.3,64.5,29.96,NW,325,0.0,0.0,44,0.00,,,0.00,WeatherCatV1.15B25,2013-07-26 17:57:00,
2013-07-26 11:02:00,90.1,63.2,29.96,NNW,327,0.0,5.0,41,0.00,,,0.00,WeatherCatV1.15B25,2013-07-26 18:02:00,
2013-07-26 11:07:00,90.4,61.3,29.96,NW,326,0.0,2.0,38,0.00,,,0.00,WeatherCatV1.15B25,2013-07-26 18:07:00,
2013-07-26 11:12:00,90.7,62.3,29.96,NNW,338,1.0,4.0,39,0.00,,,0.00,WeatherCatV1.15B25,2013-07-26 18:12:00,
2013-07-26 11:17:00,90.6,60.7,29.96,North,355,0.0,6.0,37,0.00,,,0.00,WeatherCatV1.15B25,2013-07-26 18:17:00,
2013-07-26 11:22:00,90.8,63.1,29.96,NW,325,3.0,3.0,40,0.00,,,0.00,WeatherCatV1.15B25,2013-07-26 18:22:00,
2013-07-26 11:27:00,91.0,61.8,29.96,NW,326,0.0,3.0,38,0.00,,,0.00,WeatherCatV1.15B25,2013-07-26 18:27:00,
2013-07-26 11:32:00,91.1,61.9,29.96,North,5,0.0,2.0,38,0.00,,,0.00,WeatherCatV1.15B25,2013-07-26 18:32:00,
2013-07-26 11:37:00,91.2,62.0,29.96,North,0,2.0,5.0,38,0.00,,,0.00,WeatherCatV1.15B25,2013-07-26 18:37:00,
2013-07-26 11:42:00,91.4,63.6,29.96,North,0,1.0,4.0,40,0.00,,,0.00,WeatherCatV1.15B25,2013-07-26 18:42:00,
2013-07-26 11:47:00,91.3,62.8,29.96,North,0,1.0,1.0,39,0.00,,,0.00,WeatherCatV1.15B25,2013-07-26 18:47:00,
2013-07-26 11:52:00,91.4,66.4,29.95,North,5,0.0,0.0,44,0.00,,,0.00,WeatherCatV1.15B25,2013-07-26 18:52:00,
2013-07-26 11:57:00,91.5,62.3,29.95,North,0,0.0,2.0,38,0.00,,,0.00,WeatherCatV1.15B25,2013-07-26 18:57:00,
2013-07-26 12:02:00,91.4,65.7,29.95,North,9,0.0,0.0,43,0.00,,,0.00,WeatherCatV1.15B25,2013-07-26 19:02:00,
2013-07-26 12:07:00,92.0,62.7,29.95,North,350,0.0,1.0,38,0.00,,,0.00,WeatherCatV1.15B25,2013-07-26 19:07:00,
2013-07-26 12:12:00,92.5,63.9,29.95,NW,326,0.0,5.0,39,0.00,,,0.00,WeatherCatV1.15B25,2013-07-26 19:12:00,
2013-07-26 12:17:00,92.9,65.7,29.95,NW,326,0.0,1.0,41,0.00,,,0.00,WeatherCatV1.15B25,2013-07-26 19:17:00,
2013-07-26 12:22:00,93.5,65.5,29.95,NW,326,1.0,1.0,40,0.00,,,0.00,WeatherCatV1.15B25,2013-07-26 19:22:00,
2013-07-26 12:27:00,93.4,64.7,29.95,NNW,344,2.0,3.0,39,0.00,,,0.00,WeatherCatV1.15B25,2013-07-26 19:27:00,
2013-07-26 12:32:00,93.0,63.6,29.95,North,355,0.0,1.0,38,0.00,,,0.00,WeatherCatV1.15B25,2013-07-26 19:32:00,
2013-07-26 12:37:00,92.9,68.4,29.95,North,9,0.0,0.0,45,0.00,,,0.00,WeatherCatV1.15B25,2013-07-26 19:37:00,
2013-07-26 12:42:00,93.0,65.1,29.95,North,355,0.0,1.0,40,0.00,,,0.00,WeatherCatV1.15B25,2013-07-26 19:42:00,
2013-07-26 12:47:00,92.9,62.7,29.94,North,0,0.0,0.0,37,0.00,,,0.00,WeatherCatV1.15B25,2013-07-26 19:47:00,
2013-07-26 12:52:00,93.3,64.6,29.94,North,5,0.0,2.0,39,0.00,,,0.00,WeatherCatV1.15B25,2013-07-26 19:52:00,
2013-07-26 12:57:00,94.1,68.1,29.94,North,5,0.0,0.0,43,0.00,,,0.00,WeatherCatV1.15B25,2013-07-26 19:57:00,
2013-07-26 13:02:00,94.5,67.1,29.94,North,355,0.0,1.0,41,0.00,,,0.00,WeatherCatV1.15B25,2013-07-26 20:02:00,
2013-07-26 13:07:00,95.2,67.7,29.94,North,355,0.0,1.0,41,0.00,,,0.00,WeatherCatV1.15B25,2013-07-26 20:07:00,
2013-07-26 13:12:00,95.5,67.3,29.94,North,355,0.0,0.0,40,0.00,,,0.00,WeatherCatV1.15B25,2013-07-26 20:12:00,
2013-07-26 13:17:00,95.3,66.4,29.93,North,351,0.0,3.0,39,0.00,,,0.00,WeatherCatV1.15B25,2013-07-26 20:17:00,
2013-07-26 13:22:00,94.9,66.7,29.93,North,0,0.0,0.0,40,0.00,,,0.00,WeatherCatV1.15B25,2013-07-26 20:22:00,
2013-07-26 13:27:00,95.4,66.5,29.93,North,5,0.0,1.0,39,0.00,,,0.00,WeatherCatV1.15B25,2013-07-26 20:27:00,
2013-07-26 13:32:00,95.5,65.0,29.93,North,5,0.0,0.0,37,0.00,,,0.00,WeatherCatV1.15B25,2013-07-26 20:32:00,
2013-07-26 13:37:00,95.8,67.5,29.93,North,5,0.0,1.0,40,0.00,,,0.00,WeatherCatV1.15B25,2013-07-26 20:37:00,
2013-07-26 13:42:00,96.4,69.5,29.93,North,355,0.0,1.0,42,0.00,,,0.00,WeatherCatV1.15B25,2013-07-26 20:42:00,
2013-07-26 13:47:00,96.5,67.4,29.92,NNW,338,0.0,1.0,39,0.00,,,0.00,WeatherCatV1.15B25,2013-07-26 20:47:00,
2013-07-26 13:52:00,96.6,65.2,29.92,NNW,338,0.0,1.0,36,0.00,,,0.00,WeatherCatV1.15B25,2013-07-26 20:52:00,
2013-07-26 13:57:00,96.8,66.2,29.92,NNW,331,0.0,1.0,37,0.00,,,0.00,WeatherCatV1.15B25,2013-07-26 20:57:00,
2013-07-26 14:02:00,97.0,65.6,29.92,NNW,331,0.0,1.0,36,0.00,,,0.00,WeatherCatV1.15B25,2013-07-26 21:02:00,
2013-07-26 14:07:00,96.7,65.3,29.92,NNW,331,0.0,3.0,36,0.00,,,0.00,WeatherCatV1.15B25,2013-07-26 21:07:00,
2013-07-26 14:12:00,97.2,64.1,29.92,SW,217,2.0,4.0,34,0.00,,,0.00,WeatherCatV1.15B25,2013-07-26 21:12:00,
2013-07-26 14:17:00,97.3,66.6,29.92,SSW,208,0.0,0.0,37,0.00,,,0.00,WeatherCatV1.15B25,2013-07-26 21:17:00,
2013-07-26 14:22:00,97.3,65.8,29.92,North,0,3.0,6.0,36,0.00,,,0.00,WeatherCatV1.15B25,2013-07-26 21:22:00,
2013-07-26 14:27:00,97.2,65.7,29.91,North,9,0.0,0.0,36,0.00,,,0.00,WeatherCatV1.15B25,2013-07-26 21:27:00,
2013-07-26 14:32:00,97.5,64.3,29.91,West,259,0.0,0.0,34,0.00,,,0.00,WeatherCatV1.15B25,2013-07-26 21:32:00,
2013-07-26 14:37:00,97.8,65.4,29.91,West,259,0.0,0.0,35,0.00,,,0.00,WeatherCatV1.15B25,2013-07-26 21:37:00,
2013-07-26 14:42:00,98.4,68.4,29.91,West,259,0.0,0.0,38,0.00,,,0.00,WeatherCatV1.15B25,2013-07-26 21:42:00,
2013-07-26 14:47:00,98.9,64.7,29.91,WNW,298,0.0,3.0,33,0.00,,,0.00,WeatherCatV1.15B25,2013-07-26 21:47:00,
2013-07-26 14:52:00,99.2,66.7,29.90,NW,315,0.0,1.0,35,0.00,,,0.00,WeatherCatV1.15B25,2013-07-26 21:52:00,
2013-07-26 14:57:00,99.2,65.0,29.90,NW,325,0.0,2.0,33,0.00,,,0.00,WeatherCatV1.15B25,2013-07-26 21:57:00,
2013-07-26 15:02:00,98.9,63.8,29.90,NW,325,0.0,1.0,32,0.00,,,0.00,WeatherCatV1.15B25,2013-07-26 22:02:00,
2013-07-26 15:07:00,99.2,67.5,29.90,NW,325,0.0,0.0,36,0.00,,,0.00,WeatherCatV1.15B25,2013-07-26 22:07:00,
2013-07-26 15:12:00,99.8,67.2,29.90,SW,220,0.0,2.0,35,0.00,,,0.00,WeatherCatV1.15B25,2013-07-26 22:12:00,
2013-07-26 15:17:00,100.2,69.2,29.89,SSW,213,0.0,1.0,37,0.00,,,0.00,WeatherCatV1.15B25,2013-07-26 22:17:00,
2013-07-26 15:22:00,100.6,65.3,29.89,SW,223,0.0,3.0,32,0.00,,,0.00,WeatherCatV1.15B25,2013-07-26 22:22:00,
2013-07-26 15:27:00,100.8,66.4,29.89,SW,232,0.0,0.0,33,0.00,,,0.00,WeatherCatV1.15B25,2013-07-26 22:27:00,
2013-07-26 15:32:00,101.0,68.2,29.89,WSW,248,1.0,1.0,35,0.00,,,0.00,WeatherCatV1.15B25,2013-07-26 22:32:00,
2013-07-26 15:37:00,100.8,65.5,29.89,WSW,239,0.0,4.0,32,0.00,,,0.00,WeatherCatV1.15B25,2013-07-26 22:37:00,
2013-07-26 15:42:00,100.5,64.3,29.89,SW,234,1.0,1.0,31,0.00,,,0.00,WeatherCatV1.15B25,2013-07-26 22:42:00,
2013-07-26 15:47:00,100.0,64.8,29.89,SW,232,0.0,4.0,32,0.00,,,0.00,WeatherCatV1.15B25,2013-07-26 22:47:00,
2013-07-26 15:52:00,99.9,64.7,29.88,SW,230,0.0,4.0,32,0.00,,,0.00,WeatherCatV1.15B25,2013-07-26 22:52:00,
2013-07-26 15:57:00,100.2,64.9,29.88,SW,232,0.0,4.0,32,0.00,,,0.00,WeatherCatV1.15B25,2013-07-26 22:57:00,
2013-07-26 16:02:00,100.2,64.0,29.88,SW,225,0.0,3.0,31,0.00,,,0.00,WeatherCatV1.15B25,2013-07-26 23:02:00,
2013-07-26 16:07:00,100.3,66.8,29.88,SW,235,2.0,4.0,34,0.00,,,0.00,WeatherCatV1.15B25,2013-07-26 23:07:00,
2013-07-26 16:12:00,100.5,66.1,29.88,SSW,207,3.0,3.0,33,0.00,,,0.00,WeatherCatV1.15B25,2013-07-26 23:12:00,
2013-07-26 16:17:00,100.2,64.9,29.88,SW,234,0.0,0.0,32,0.00,,,0.00,WeatherCatV1.15B25,2013-07-26 23:17:00,
2013-07-26 16:22:00,100.3,65.0,29.87,SW,234,0.0,1.0,32,0.00,,,0.00,WeatherCatV1.15B25,2013-07-26 23:22:00,
2013-07-26 16:27:00,100.6,65.3,29.87,SW,233,0.0,7.0,32,0.00,,,0.00,WeatherCatV1.15B25,2013-07-26 23:27:00,
2013-07-26 16:32:00,100.8,65.5,29.87,SW,233,4.0,4.0,32,0.00,,,0.00,WeatherCatV1.15B25,2013-07-26 23:32:00,
2013-07-26 16:37:00,101.0,65.6,29.87,SW,234,0.0,3.0,32,0.00,,,0.00,WeatherCatV1.15B25,2013-07-26 23:37:00,
2013-07-26 16:42:00,101.1,66.6,29.87,SW,235,0.0,1.0,33,0.00,,,0.00,WeatherCatV1.15B25,2013-07-26 23:42:00,
2013-07-26 16:47:00,101.3,67.7,29.87,SW,236,0.0,4.0,34,0.00,,,0.00,WeatherCatV1.15B25,2013-07-26 23:47:00,
2013-07-26 16:52:00,101.4,64.1,29.87,SW,234,0.0,6.0,30,0.00,,,0.00,WeatherCatV1.15B25,2013-07-26 23:52:00,
2013-07-26 16:57:00,101.5,68.7,29.87,SW,236,0.0,1.0,35,0.00,,,0.00,WeatherCatV1.15B25,2013-07-26 23:57:00,
2013-07-26 17:02:00,101.7,65.3,29.87,SW,236,1.0,2.0,31,0.00,,,0.00,WeatherCatV1.15B25,2013-07-27 00:02:00,
2013-07-26 17:07:00,101.8,66.3,29.87,SW,236,0.0,3.0,32,0.00,,,0.00,WeatherCatV1.15B25,2013-07-27 00:07:00,
2013-07-26 17:12:00,102.0,67.4,29.86,SW,235,2.0,2.0,33,0.00,,,0.00,WeatherCatV1.15B25,2013-07-27 00:12:00,
2013-07-26 17:17:00,101.7,65.3,29.86,SW,218,0.0,3.0,31,0.00,,,0.00,WeatherCatV1.15B25,2013-07-27 00:17:00,
2013-07-26 17:22:00,101.5,66.1,29.86,WSW,240,0.0,2.0,32,0.00,,,0.00,WeatherCatV1.15B25,2013-07-27 00:22:00,
2013-07-26 17:27:00,101.6,65.2,29.86,WSW,240,0.0,0.0,31,0.00,,,0.00,WeatherCatV1.15B25,2013-07-27 00:27:00,
2013-07-26 17:32:00,101.6,67.0,29.86,WSW,241,0.0,1.0,33,0.00,,,0.00,WeatherCatV1.15B25,2013-07-27 00:32:00,
2013-07-26 17:37:00,101.6,65.2,29.86,WSW,242,0.0,1.0,31,0.00,,,0.00,WeatherCatV1.15B25,2013-07-27 00:37:00,
2013-07-26 17:42:00,101.5,68.7,29.86,WSW,242,0.0,1.0,35,0.00,,,0.00,WeatherCatV1.15B25,2013-07-27 00:42:00,
2013-07-26 17:47:00,101.4,65.1,29.86,WSW,248,4.0,4.0,31,0.00,,,0.00,WeatherCatV1.15B25,2013-07-27 00:47:00,
2013-07-26 17:52:00,101.2,64.0,29.86,WSW,237,0.0,3.0,30,0.00,,,0.00,WeatherCatV1.15B25,2013-07-27 00:52:00,
2013-07-26 17:57:00,101.1,65.7,29.86,WSW,237,0.0,1.0,32,0.00,,,0.00,WeatherCatV1.15B25,2013-07-27 00:57:00,
2013-07-26 18:02:00,101.1,65.7,29.85,WSW,237,0.0,0.0,32,0.00,,,0.00,WeatherCatV1.15B25,2013-07-27 01:02:00,
2013-07-26 18:07:00,101.1,63.9,29.85,WSW,246,3.0,6.0,30,0.00,,,0.00,WeatherCatV1.15B25,2013-07-27 01:07:00,
2013-07-26 18:12:00,101.0,63.8,29.85,WSW,245,0.0,1.0,30,0.00,,,0.00,WeatherCatV1.15B25,2013-07-27 01:12:00,
2013-07-26 18:17:00,100.5,64.3,29.85,WSW,246,0.0,1.0,31,0.00,,,0.00,WeatherCatV1.15B25,2013-07-27 01:17:00,
2013-07-26 18:22:00,100.1,65.7,29.85,WSW,245,0.0,0.0,33,0.00,,,0.00,WeatherCatV1.15B25,2013-07-27 01:22:00,
2013-07-26 18:27:00,99.8,66.3,29.85,WSW,246,0.0,0.0,34,0.00,,,0.00,WeatherCatV1.15B25,2013-07-27 01:27:00,
2013-07-26 18:32:00,99.6,67.0,29.85,WSW,246,0.0,0.0,35,0.00,,,0.00,WeatherCatV1.15B25,2013-07-27 01:32:00,
2013-07-26 18:37:00,99.6,67.0,29.85,WSW,245,0.0,0.0,35,0.00,,,0.00,WeatherCatV1.15B25,2013-07-27 01:37:00,
2013-07-26 18:42:00,99.5,67.7,29.85,WSW,246,0.0,0.0,36,0.00,,,0.00,WeatherCatV1.15B25,2013-07-27 01:42:00,
2013-07-26 18:47:00,99.4,67.7,29.85,WSW,245,0.0,1.0,36,0.00,,,0.00,WeatherCatV1.15B25,2013-07-27 01:47:00,
2013-07-26 18:52:00,99.3,68.4,29.85,WSW,246,0.0,1.0,37,0.00,,,0.00,WeatherCatV1.15B25,2013-07-27 01:52:00,
2013-07-26 18:57:00,99.1,68.2,29.85,WSW,245,0.0,0.0,37,0.00,,,0.00,WeatherCatV1.15B25,2013-07-27 01:57:00,
2013-07-26 19:02:00,98.8,66.3,29.85,WSW,245,0.0,3.0,35,0.00,,,0.00,WeatherCatV1.15B25,2013-07-27 02:02:00,
2013-07-26 19:07:00,98.4,67.6,29.85,WSW,246,0.0,0.0,37,0.00,,,0.00,WeatherCatV1.15B25,2013-07-27 02:07:00,
2013-07-26 19:12:00,98.0,67.2,29.85,WSW,245,0.0,0.0,37,0.00,,,0.00,WeatherCatV1.15B25,2013-07-27 02:12:00,
2013-07-26 19:17:00,97.6,66.9,29.85,WSW,245,0.0,1.0,37,0.00,,,0.00,WeatherCatV1.15B25,2013-07-27 02:17:00,
2013-07-26 19:22:00,97.1,67.2,29.85,WSW,246,0.0,0.0,38,0.00,,,0.00,WeatherCatV1.15B25,2013-07-27 02:22:00,
2013-07-26 19:27:00,96.7,67.6,29.85,WSW,245,0.0,0.0,39,0.00,,,0.00,WeatherCatV1.15B25,2013-07-27 02:27:00,
2013-07-26 19:32:00,96.0,67.7,29.85,WSW,245,0.0,0.0,40,0.00,,,0.00,WeatherCatV1.15B25,2013-07-27 02:32:00,
2013-07-26 19:37:00,95.3,68.5,29.85,WSW,245,0.0,0.0,42,0.00,,,0.00,WeatherCatV1.15B25,2013-07-27 02:37:00,
2013-07-26 19:42:00,94.6,69.3,29.85,WSW,246,0.0,0.0,44,0.00,,,0.00,WeatherCatV1.15B25,2013-07-27 02:42:00,
2013-07-26 19:47:00,93.5,70.8,29.85,WSW,245,0.0,0.0,48,0.00,,,0.00,WeatherCatV1.15B25,2013-07-27 02:47:00,
2013-07-26 19:52:00,92.6,70.6,29.85,WSW,245,0.0,0.0,49,0.00,,,0.00,WeatherCatV1.15B25,2013-07-27 02:52:00,
2013-07-26 19:57:00,91.7,69.2,29.85,WSW,245,0.0,0.0,48,0.00,,,0.00,WeatherCatV1.15B25,2013-07-27 02:57:00,
2013-07-26 20:02:00,90.9,68.4,29.85,WSW,245,0.0,0.0,48,0.00,,,0.00,WeatherCatV1.15B25,2013-07-27 03:02:00,
2013-07-26 20:07:00,90.2,67.8,29.85,WSW,245,0.0,0.0,48,0.00,,,0.00,WeatherCatV1.15B25,2013-07-27 03:07:00,
2013-07-26 20:12:00,89.5,67.8,29.85,WSW,245,0.0,0.0,49,0.00,,,0.00,WeatherCatV1.15B25,2013-07-27 03:12:00,
2013-07-26 20:17:00,88.9,67.8,29.85,WSW,245,0.0,0.0,50,0.00,,,0.00,WeatherCatV1.15B25,2013-07-27 03:17:00,
2013-07-26 20:22:00,88.1,68.2,29.85,WSW,245,0.0,0.0,52,0.00,,,0.00,WeatherCatV1.15B25,2013-07-27 03:22:00,
2013-07-26 20:27:00,87.3,68.0,29.85,WSW,245,0.0,0.0,53,0.00,,,0.00,WeatherCatV1.15B25,2013-07-27 03:27:00,
2013-07-26 20:32:00,86.6,67.9,29.85,WSW,246,0.0,0.0,54,0.00,,,0.00,WeatherCatV1.15B25,2013-07-27 03:32:00,
2013-07-26 20:37:00,86.0,67.4,29.85,WSW,246,0.0,0.0,54,0.00,,,0.00,WeatherCatV1.15B25,2013-07-27 03:37:00,
2013-07-26 20:42:00,85.6,67.0,29.86,WSW,245,0.0,0.0,54,0.00,,,0.00,WeatherCatV1.15B25,2013-07-27 03:42:00,
2013-07-26 20:47:00,85.2,66.6,29.86,WSW,246,0.0,0.0,54,0.00,,,0.00,WeatherCatV1.15B25,2013-07-27 03:47:00,
2013-07-26 20:52:00,85.0,65.9,29.86,WSW,246,0.0,0.0,53,0.00,,,0.00,WeatherCatV1.15B25,2013-07-27 03:52:00,
2013-07-26 20:57:00,84.7,66.2,29.86,WSW,245,0.0,0.0,54,0.00,,,0.00,WeatherCatV1.15B25,2013-07-27 03:57:00,
2013-07-26 21:01:00,84.5,66.0,29.86,WSW,246,0.0,0.0,54,0.00,,,0.00,WeatherCatV1.15B25,2013-07-27 04:01:00,
2013-07-26 21:06:00,84.2,65.7,29.86,WSW,246,0.0,0.0,54,0.00,,,0.00,WeatherCatV1.15B25,2013-07-27 04:06:00,
2013-07-26 21:11:00,84.1,66.2,29.86,WSW,246,0.0,1.0,55,0.00,,,0.00,WeatherCatV1.15B25,2013-07-27 04:11:00,
2013-07-26 21:16:00,83.9,66.0,29.86,WSW,246,0.0,0.0,55,0.00,,,0.00,WeatherCatV1.15B25,2013-07-27 04:16:00,
2013-07-26 21:21:00,83.6,66.2,29.86,WSW,246,0.0,0.0,56,0.00,,,0.00,WeatherCatV1.15B25,2013-07-27 04:21:00,
2013-07-26 21:26:00,83.5,66.6,29.87,WSW,246,0.0,0.0,57,0.00,,,0.00,WeatherCatV1.15B25,2013-07-27 04:26:00,
2013-07-26 21:31:00,83.3,66.4,29.87,WSW,245,0.0,0.0,57,0.00,,,0.00,WeatherCatV1.15B25,2013-07-27 04:31:00,
2013-07-26 21:36:00,83.1,66.3,29.87,WSW,246,0.0,0.0,57,0.00,,,0.00,WeatherCatV1.15B25,2013-07-27 04:36:00,
2013-07-26 21:41:00,82.9,66.6,29.87,WSW,246,0.0,0.0,58,0.00,,,0.00,WeatherCatV1.15B25,2013-07-27 04:41:00,
2013-07-26 21:46:00,82.7,66.4,29.87,WSW,245,0.0,0.0,58,0.00,,,0.00,WeatherCatV1.15B25,2013-07-27 04:46:00,
2013-07-26 21:51:00,82.5,66.7,29.87,WSW,245,0.0,0.0,59,0.00,,,0.00,WeatherCatV1.15B25,2013-07-27 04:51:00,
2013-07-26 21:56:00,82.3,66.5,29.87,WSW,246,0.0,0.0,59,0.00,,,0.00,WeatherCatV1.15B25,2013-07-27 04:56:00,
2013-07-26 22:01:00,81.9,66.6,29.87,WSW,246,0.0,0.0,60,0.00,,,0.00,WeatherCatV1.15B25,2013-07-27 05:01:00,
2013-07-26 22:06:00,81.6,66.3,29.87,WSW,245,0.0,0.0,60,0.00,,,0.00,WeatherCatV1.15B25,2013-07-27 05:06:00,
2013-07-26 22:11:00,81.3,66.5,29.87,WSW,246,0.0,1.0,61,0.00,,,0.00,WeatherCatV1.15B25,2013-07-27 05:11:00,
2013-07-26 22:16:00,81.1,66.4,29.87,WSW,246,0.0,0.0,61,0.00,,,0.00,WeatherCatV1.15B25,2013-07-27 05:16:00,
2013-07-26 22:21:00,80.8,66.5,29.87,WSW,246,0.0,0.0,62,0.00,,,0.00,WeatherCatV1.15B25,2013-07-27 05:21:00,
2013-07-26 22:26:00,80.5,66.3,29.87,WSW,245,0.0,1.0,62,0.00,,,0.00,WeatherCatV1.15B25,2013-07-27 05:26:00,
2013-07-26 22:31:00,80.2,66.0,29.87,WSW,245,0.0,0.0,62,0.00,,,0.00,WeatherCatV1.15B25,2013-07-27 05:31:00,
2013-07-26 22:36:00,80.0,65.8,29.87,WSW,246,0.0,0.0,62,0.00,,,0.00,WeatherCatV1.15B25,2013-07-27 05:36:00,
2013-07-26 22:41:00,79.7,66.0,29.87,WSW,245,0.0,0.0,63,0.00,,,0.00,WeatherCatV1.15B25,2013-07-27 05:41:00,
2013-07-26 22:46:00,79.4,65.7,29.87,WSW,246,0.0,0.0,63,0.00,,,0.00,WeatherCatV1.15B25,2013-07-27 05:46:00,
2013-07-26 22:51:00,79.1,65.4,29.87,WSW,246,0.0,0.0,63,0.00,,,0.00,WeatherCatV1.15B25,2013-07-27 05:51:00,
2013-07-26 22:56:00,78.9,65.2,29.87,WSW,246,0.0,0.0,63,0.00,,,0.00,WeatherCatV1.15B25,2013-07-27 05:56:00,
2013-07-26 23:01:00,78.7,65.0,29.87,WSW,246,0.0,0.0,63,0.00,,,0.00,WeatherCatV1.15B25,2013-07-27 06:01:00,
2013-07-26 23:06:00,78.6,64.5,29.87,WSW,245,0.0,0.0,62,0.00,,,0.00,WeatherCatV1.15B25,2013-07-27 06:06:00,
2013-07-26 23:11:00,78.6,64.5,29.87,WSW,246,0.0,0.0,62,0.00,,,0.00,WeatherCatV1.15B25,2013-07-27 06:11:00,
2013-07-26 23:16:00,78.5,64.4,29.87,WSW,245,0.0,0.0,62,0.00,,,0.00,WeatherCatV1.15B25,2013-07-27 06:16:00,
2013-07-26 23:21:00,78.5,64.4,29.87,WSW,245,0.0,0.0,62,0.00,,,0.00,WeatherCatV1.15B25,2013-07-27 06:21:00,
2013-07-26 23:26:00,78.4,64.3,29.87,WSW,246,0.0,0.0,62,0.00,,,0.00,WeatherCatV1.15B25,2013-07-27 06:26:00,
2013-07-26 23:31:00,78.3,64.2,29.87,WSW,246,0.0,0.0,62,0.00,,,0.00,WeatherCatV1.15B25,2013-07-27 06:31:00,
2013-07-26 23:36:00,78.2,64.6,29.88,WSW,246,0.0,1.0,63,0.00,,,0.00,WeatherCatV1.15B25,2013-07-27 06:36:00,
2013-07-26 23:41:00,78.0,64.4,29.88,WSW,246,0.0,0.0,63,0.00,,,0.00,WeatherCatV1.15B25,2013-07-27 06:41:00,
2013-07-26 23:46:00,77.8,65.1,29.88,WSW,245,0.0,0.0,65,0.00,,,0.00,WeatherCatV1.15B25,2013-07-27 06:46:00,
2013-07-26 23:51:00,77.7,65.0,29.88,WSW,246,0.0,0.0,65,0.00,,,0.00,WeatherCatV1.15B25,2013-07-27 06:51:00,
2013-07-26 23:56:00,77.6,65.3,29.88,WSW,246,0.0,1.0,66,0.00,,,0.00,WeatherCatV1.15B25,2013-07-27 06:56:00,